Time+07,TemperatureF,Dew PointF,Humidity,Sea Level PressureIn,VisibilityMPH,Wind Direction,Wind SpeedMPH,Gust SpeedMPH,PrecipitationIn,Events,Conditions,WindDirDegrees,DateUTC
12:00 AM,80.6,75.2,84,29.65,5.6,SW,5.8,-,N/A,,Scattered Clouds,220,2013-07-01 17:00:00
12:30 AM,78.8,73.4,83,29.65,5.6,SW,3.5,-,N/A,,Scattered Clouds,220,2013-07-01 17:30:00
1:00 AM,80.6,73.4,79,29.65,5.6,SW,3.5,-,N/A,,Scattered Clouds,220,2013-07-01 18:00:00
7:00 AM,,,,,,Calm,Calm,,,,,,2013-07-02 00:00:00
7:00 AM,80.6,77.0,89,29.65,6.2,Calm,Calm,-,N/A,,Scattered Clouds,0,2013-07-02 00:00:00
7:30 AM,82.4,77.0,84,29.68,6.2,Calm,Calm,-,N/A,,Scattered Clouds,0,2013-07-02 00:30:00
8:00 AM,84.2,75.2,74,29.68,6.2,Calm,Calm,-,N/A,,Scattered Clouds,0,2013-07-02 01:00:00
8:30 AM,84.2,75.2,74,29.68,6.2,Variable,2.3,-,N/A,,Scattered Clouds,0,2013-07-02 01:30:00
9:00 AM,86.0,75.2,70,29.68,6.2,West,3.5,-,N/A,,Scattered Clouds,270,2013-07-02 02:00:00
9:30 AM,86.0,75.2,70,29.71,6.2,Variable,3.5,-,N/A,,Scattered Clouds,0,2013-07-02 02:30:00
10:00 AM,87.8,73.4,62,29.68,6.2,Variable,3.5,-,N/A,,Scattered Clouds,0,2013-07-02 03:00:00
10:30 AM,87.8,73.4,62,29.68,6.2,Variable,2.3,-,N/A,,Scattered Clouds,0,2013-07-02 03:30:00
11:00 AM,87.8,73.4,62,29.68,6.2,WNW,4.6,-,N/A,,Scattered Clouds,300,2013-07-02 04:00:00
11:30 AM,89.6,73.4,59,29.68,6.2,Variable,2.3,-,N/A,,Scattered Clouds,0,2013-07-02 04:30:00
12:00 PM,89.6,73.4,59,29.68,6.2,West,4.6,-,N/A,,Partly Cloudy,270,2013-07-02 05:00:00
12:30 PM,91.4,73.4,55,29.65,6.2,West,6.9,-,N/A,,Partly Cloudy,270,2013-07-02 05:30:00
1:00 PM,91.4,73.4,55,29.65,6.2,West,4.6,-,N/A,,Partly Cloudy,270,2013-07-02 06:00:00
1:30 PM,91.4,73.4,55,29.65,6.2,WNW,5.8,-,N/A,,Partly Cloudy,290,2013-07-02 06:30:00
2:00 PM,91.4,73.4,55,29.65,6.2,Variable,3.5,-,N/A,,Partly Cloudy,0,2013-07-02 07:00:00
2:30 PM,91.4,73.4,55,29.62,6.2,Calm,Calm,-,N/A,,Partly Cloudy,0,2013-07-02 07:30:00
3:00 PM,91.4,73.4,55,29.62,6.2,Variable,3.5,-,N/A,,Partly Cloudy,0,2013-07-02 08:00:00
3:30 PM,91.4,73.4,55,29.62,6.2,Variable,1.2,-,N/A,,Partly Cloudy,0,2013-07-02 08:30:00
4:00 PM,91.4,71.6,52,29.59,6.2,Variable,1.2,-,N/A,,Partly Cloudy,0,2013-07-02 09:00:00
4:30 PM,93.2,73.4,52,29.62,6.2,Variable,1.2,-,N/A,,Partly Cloudy,0,2013-07-02 09:30:00
5:00 PM,93.2,73.4,52,29.59,6.2,Calm,Calm,-,N/A,,Partly Cloudy,0,2013-07-02 10:00:00
5:30 PM,91.4,73.4,55,29.62,6.2,Calm,Calm,-,N/A,,Partly Cloudy,0,2013-07-02 10:30:00
6:00 PM,89.6,73.4,59,29.62,6.2,Calm,Calm,-,N/A,,Partly Cloudy,0,2013-07-02 11:00:00
6:30 PM,80.6,73.4,79,29.65,6.2,SSW,15.0,26.5,N/A,,Mostly Cloudy,200,2013-07-02 11:30:00
7:00 PM,80.6,71.6,74,29.65,6.2,South,9.2,-,N/A,,Mostly Cloudy,180,2013-07-02 12:00:00
7:30 PM,80.6,69.8,70,29.65,6.2,SE,3.5,-,N/A,,Mostly Cloudy,140,2013-07-02 12:30:00
8:00 PM,80.6,71.6,74,29.68,6.2,South,3.5,-,N/A,,Mostly Cloudy,170,2013-07-02 13:00:00
8:30 PM,80.6,73.4,79,29.68,6.2,Calm,Calm,-,N/A,,Scattered Clouds,0,2013-07-02 13:30:00
9:00 PM,80.6,73.4,79,29.71,6.2,Calm,Calm,-,N/A,,Scattered Clouds,0,2013-07-02 14:00:00
9:30 PM,80.6,75.2,84,29.71,6.2,WSW,1.2,-,N/A,,Scattered Clouds,240,2013-07-02 14:30:00
10:00 PM,82.4,75.2,79,29.71,6.2,Calm,Calm,-,N/A,,Scattered Clouds,0,2013-07-02 15:00:00
10:30 PM,82.4,75.2,79,29.71,6.2,Calm,Calm,-,N/A,,Scattered Clouds,0,2013-07-02 15:30:00
11:00 PM,80.6,75.2,84,29.71,6.2,SW,3.5,-,N/A,,Scattered Clouds,220,2013-07-02 16:00:00
11:30 PM,80.6,75.2,84,29.71,6.2,Calm,Calm,-,N/A,,Scattered Clouds,0,2013-07-02 16:30:00